TimeEDT,TemperatureF,Dew PointF,Humidity,Sea Level PressureIn,VisibilityMPH,Wind Direction,Wind SpeedMPH,Gust SpeedMPH,PrecipitationIn,Events,Conditions,WindDirDegrees,DateUTC
12:15 AM,51.8,46.4,82,30.29,10.0,Calm,Calm,-,N/A,,Clear,0,2013-10-09 04:15:00
12:35 AM,50.0,46.4,87,30.29,10.0,NE,3.5,-,N/A,,Clear,40,2013-10-09 04:35:00
12:55 AM,50.0,46.4,87,30.29,10.0,NE,3.5,-,N/A,,Clear,50,2013-10-09 04:55:00
1:15 AM,48.2,46.4,93,30.28,10.0,NNE,3.5,-,N/A,,Clear,20,2013-10-09 05:15:00
1:35 AM,48.2,44.6,87,30.28,10.0,Calm,Calm,-,N/A,,Clear,0,2013-10-09 05:35:00
1:55 AM,48.2,44.6,87,30.28,10.0,North,3.5,-,N/A,,Clear,10,2013-10-09 05:55:00
2:15 AM,48.2,44.6,87,30.28,10.0,NNE,4.6,-,N/A,,Clear,30,2013-10-09 06:15:00
2:35 AM,48.2,44.6,87,30.27,10.0,NE,4.6,-,N/A,,Clear,40,2013-10-09 06:35:00
2:55 AM,48.2,44.6,87,30.27,10.0,NNE,3.5,-,N/A,,Clear,30,2013-10-09 06:55:00
3:15 AM,48.2,44.6,87,30.27,10.0,NNE,3.5,-,N/A,,Clear,20,2013-10-09 07:15:00
3:35 AM,48.2,44.6,87,30.26,10.0,NE,4.6,-,N/A,,Clear,40,2013-10-09 07:35:00
3:55 AM,48.2,44.6,87,30.26,10.0,NNE,3.5,-,N/A,,Clear,20,2013-10-09 07:55:00
4:15 AM,48.2,44.6,87,30.27,10.0,Calm,Calm,-,N/A,,Clear,0,2013-10-09 08:15:00
4:35 AM,46.4,44.6,93,30.27,10.0,North,3.5,-,N/A,,Clear,10,2013-10-09 08:35:00
4:55 AM,46.4,44.6,93,30.27,10.0,North,3.5,-,N/A,,Clear,360,2013-10-09 08:55:00
5:15 AM,46.4,44.6,93,30.27,10.0,Calm,Calm,-,N/A,,Clear,0,2013-10-09 09:15:00
5:35 AM,46.4,44.6,93,30.27,10.0,Calm,Calm,-,N/A,,Clear,0,2013-10-09 09:35:00
5:55 AM,46.4,44.6,93,30.27,10.0,Calm,Calm,-,N/A,,Clear,0,2013-10-09 09:55:00
6:15 AM,46.4,44.6,93,30.27,10.0,NNE,4.6,-,N/A,,Clear,20,2013-10-09 10:15:00
6:35 AM,46.4,44.6,93,30.28,10.0,Calm,Calm,-,N/A,,Clear,0,2013-10-09 10:35:00
6:55 AM,44.6,42.8,93,30.27,10.0,Calm,Calm,-,N/A,,Clear,0,2013-10-09 10:55:00
7:15 AM,44.6,42.8,93,30.27,10.0,Calm,Calm,-,N/A,,Clear,0,2013-10-09 11:15:00
7:35 AM,41.0,39.2,93,30.28,7.0,ENE,3.5,-,N/A,,Clear,60,2013-10-09 11:35:00
7:55 AM,44.6,44.6,100,30.28,10.0,Calm,Calm,-,N/A,,Clear,0,2013-10-09 11:55:00
8:15 AM,46.4,44.6,93,30.29,10.0,Calm,Calm,-,N/A,,Clear,0,2013-10-09 12:15:00
8:35 AM,46.4,44.6,93,30.30,10.0,Calm,Calm,-,N/A,,Clear,0,2013-10-09 12:35:00
8:55 AM,48.2,46.4,93,30.30,10.0,NNE,3.5,-,N/A,,Clear,30,2013-10-09 12:55:00
9:15 AM,48.2,46.4,93,30.31,10.0,NNE,3.5,-,N/A,,Clear,20,2013-10-09 13:15:00
9:35 AM,51.8,46.4,82,30.31,10.0,NNE,4.6,-,N/A,,Clear,20,2013-10-09 13:35:00
9:55 AM,51.8,48.2,88,30.32,10.0,NNE,4.6,-,N/A,,Clear,30,2013-10-09 13:55:00
10:15 AM,53.6,46.4,77,30.32,10.0,North,5.8,-,N/A,,Clear,10,2013-10-09 14:15:00
10:35 AM,53.6,46.4,77,30.32,10.0,North,4.6,-,N/A,,Clear,10,2013-10-09 14:35:00
10:55 AM,55.4,46.4,72,30.32,10.0,North,5.8,-,N/A,,Clear,360,2013-10-09 14:55:00
11:15 AM,57.2,46.4,67,30.31,10.0,North,5.8,-,N/A,,Clear,360,2013-10-09 15:15:00
11:35 AM,57.2,42.8,59,30.32,10.0,NE,9.2,-,N/A,,Clear,40,2013-10-09 15:35:00
11:55 AM,60.8,44.6,55,30.31,10.0,Calm,Calm,-,N/A,,Clear,0,2013-10-09 15:55:00
12:15 PM,62.6,42.8,48,30.30,10.0,NE,5.8,-,N/A,,Clear,50,2013-10-09 16:15:00
12:35 PM,62.6,39.2,42,30.30,10.0,ENE,5.8,-,N/A,,Clear,70,2013-10-09 16:35:00
12:55 PM,62.6,39.2,42,30.29,10.0,NNE,4.6,-,N/A,,Clear,30,2013-10-09 16:55:00
1:15 PM,64.4,41.0,42,30.28,10.0,NE,5.8,-,N/A,,Clear,50,2013-10-09 17:15:00
1:35 PM,62.6,37.4,39,30.28,10.0,NE,6.9,-,N/A,,Clear,50,2013-10-09 17:35:00
1:55 PM,64.4,39.2,40,30.26,10.0,NE,6.9,-,N/A,,Clear,40,2013-10-09 17:55:00
2:15 PM,64.4,41.0,42,30.26,10.0,NE,8.1,-,N/A,,Clear,40,2013-10-09 18:15:00
2:35 PM,66.2,42.8,43,30.25,10.0,ENE,4.6,-,N/A,,Clear,60,2013-10-09 18:35:00
2:55 PM,66.2,42.8,43,30.24,10.0,NE,8.1,-,N/A,,Clear,50,2013-10-09 18:55:00
3:15 PM,66.2,42.8,43,30.24,10.0,WNW,4.6,-,N/A,,Clear,300,2013-10-09 19:15:00
3:35 PM,66.2,44.6,46,30.23,10.0,Calm,Calm,-,N/A,,Clear,0,2013-10-09 19:35:00
3:55 PM,66.2,44.6,46,30.23,10.0,NE,5.8,-,N/A,,Clear,40,2013-10-09 19:55:00
4:15 PM,66.2,46.4,49,30.23,10.0,NE,3.5,-,N/A,,Clear,40,2013-10-09 20:15:00
4:55 PM,66.2,46.4,49,30.24,10.0,North,5.8,-,N/A,,Clear,350,2013-10-09 20:55:00
5:15 PM,64.4,46.4,52,30.23,10.0,North,8.1,-,N/A,,Clear,350,2013-10-09 21:15:00
5:35 PM,64.4,44.6,49,30.23,10.0,North,5.8,-,N/A,,Clear,360,2013-10-09 21:35:00
5:55 PM,64.4,44.6,49,30.24,10.0,NE,4.6,-,N/A,,Clear,40,2013-10-09 21:55:00
6:15 PM,64.4,44.6,49,30.24,10.0,NNE,3.5,-,N/A,,Clear,20,2013-10-09 22:15:00
6:35 PM,62.6,44.6,52,30.24,10.0,North,3.5,-,N/A,,Clear,10,2013-10-09 22:35:00
6:55 PM,60.8,46.4,59,30.23,10.0,NNE,3.5,-,N/A,,Clear,20,2013-10-09 22:55:00
7:15 PM,57.2,46.4,67,30.23,10.0,Calm,Calm,-,N/A,,Clear,0,2013-10-09 23:15:00
7:55 PM,57.2,44.6,63,30.24,10.0,NE,5.8,-,N/A,,Clear,40,2013-10-09 23:55:00
8:15 PM,55.4,44.6,67,30.24,10.0,NE,5.8,-,N/A,,Clear,50,2013-10-10 00:15:00
8:35 PM,55.4,42.8,63,30.24,10.0,ENE,5.8,-,N/A,,Clear,60,2013-10-10 00:35:00
8:55 PM,55.4,42.8,63,30.24,10.0,NNE,4.6,-,N/A,,Clear,20,2013-10-10 00:55:00
9:15 PM,53.6,42.8,67,30.24,10.0,NE,5.8,-,N/A,,Clear,40,2013-10-10 01:15:00
9:35 PM,53.6,42.8,67,30.24,10.0,NE,6.9,-,N/A,,Clear,50,2013-10-10 01:35:00
9:55 PM,53.6,42.8,67,30.24,10.0,NE,5.8,-,N/A,,Clear,40,2013-10-10 01:55:00
10:15 PM,53.6,44.6,72,30.24,10.0,NNE,4.6,-,N/A,,Clear,30,2013-10-10 02:15:00
10:35 PM,53.6,44.6,72,30.24,10.0,NNE,4.6,-,N/A,,Clear,30,2013-10-10 02:35:00
10:55 PM,51.8,44.6,76,30.24,10.0,Calm,Calm,-,N/A,,Clear,0,2013-10-10 02:55:00
11:15 PM,51.8,44.6,76,30.23,10.0,Calm,Calm,-,N/A,,Clear,0,2013-10-10 03:15:00
11:35 PM,51.8,44.6,76,30.23,10.0,North,3.5,-,N/A,,Clear,10,2013-10-10 03:35:00
11:55 PM,51.8,44.6,76,30.22,10.0,NNE,3.5,-,N/A,,Clear,30,2013-10-10 03:55:00